User: anonymous   Login
Location: Bletchingley
(51.2333°N, 0.1000°W)
Time: 21:37:40
(UTC+00:00)
Language:

Cosmos 1733 - Orbit

View from above orbital plane
View from above orbital plane
View from above satellite
View from above satellite

Ground track
Ground track

The orbit data is extracted from the following two-line orbital elements,

1 16611U 86018A   20327.87554713 +.00000808 +00000-0 +38613-4 0  9993
2 16611 082.4908 235.5750 0011098 313.0621 046.9682 15.17559433898935
Epoch (UTC): 22 November 2020 21:00:47
Eccentricity: 0.0011098
inclination: 82.4908°
perigee height: 505 km
apogee height: 521 km
right ascension of ascending node: 235.5750°
argument of perigee: 313.0621°
revolutions per day: 15.17559433
mean anomaly at epoch: 46.9682°
orbit number at epoch: 89893

The dashed part of the orbit path shows where the satellite is in the earth's shadow,  

DLR